Year,Month,Day,Hour,Minute,Value (Times are PST for temperature in C)
2016,04,26,00,00,6.80
2016,04,26,00,01,6.80
2016,04,26,00,02,6.80
2016,04,26,00,03,6.80
2016,04,26,00,04,6.80
2016,04,26,00,05,6.80
2016,04,26,00,06,6.80
2016,04,26,00,07,6.80
2016,04,26,00,08,6.80
2016,04,26,00,09,6.80
2016,04,26,00,10,6.80
2016,04,26,00,11,6.80
2016,04,26,00,12,6.80
2016,04,26,00,13,6.80
2016,04,26,00,14,6.70
2016,04,26,00,15,6.70
2016,04,26,00,16,6.70
2016,04,26,00,17,6.80
2016,04,26,00,18,6.80
2016,04,26,00,19,6.80
2016,04,26,00,20,6.80
2016,04,26,00,21,6.80
2016,04,26,00,22,6.80
2016,04,26,00,23,6.80
2016,04,26,00,24,6.80
2016,04,26,00,25,6.80
2016,04,26,00,26,6.80
2016,04,26,00,27,6.90
2016,04,26,00,28,6.90
2016,04,26,00,29,6.90
2016,04,26,00,30,6.90
2016,04,26,00,31,6.90
2016,04,26,00,32,6.90
2016,04,26,00,33,6.90
2016,04,26,00,34,6.90
2016,04,26,00,35,6.90
2016,04,26,00,36,6.90
2016,04,26,00,37,6.90
2016,04,26,00,38,6.90
2016,04,26,00,39,6.90
2016,04,26,00,40,6.90
2016,04,26,00,41,6.90
2016,04,26,00,42,6.90
2016,04,26,00,43,6.90
2016,04,26,00,44,6.90
2016,04,26,00,45,6.90
2016,04,26,00,46,7.00
2016,04,26,00,47,6.90
2016,04,26,00,48,6.90
2016,04,26,00,49,6.90
2016,04,26,00,50,6.90
2016,04,26,00,51,6.90
2016,04,26,00,52,6.90
2016,04,26,00,53,6.90
2016,04,26,00,54,6.90
2016,04,26,00,55,6.90
2016,04,26,00,56,6.90
2016,04,26,00,57,6.90
2016,04,26,00,58,6.90
2016,04,26,00,59,6.90
2016,04,26,01,00,6.90
2016,04,26,01,01,6.80
2016,04,26,01,02,6.80
2016,04,26,01,03,6.80
2016,04,26,01,04,6.80
2016,04,26,01,05,6.70
2016,04,26,01,06,6.70
2016,04,26,01,07,6.70
2016,04,26,01,08,6.70
2016,04,26,01,09,6.70
2016,04,26,01,10,6.70
2016,04,26,01,11,6.70
2016,04,26,01,12,6.70
2016,04,26,01,13,6.70
2016,04,26,01,14,6.60
2016,04,26,01,15,6.60
2016,04,26,01,16,6.60
2016,04,26,01,17,6.60
2016,04,26,01,18,6.50
2016,04,26,01,19,6.50
2016,04,26,01,20,6.50
2016,04,26,01,21,6.50
2016,04,26,01,22,6.40
2016,04,26,01,23,6.40
2016,04,26,01,24,6.40
2016,04,26,01,25,6.30
2016,04,26,01,26,6.30
2016,04,26,01,27,6.30
2016,04,26,01,28,6.30
2016,04,26,01,29,6.30
2016,04,26,01,30,6.30
2016,04,26,01,31,6.20
2016,04,26,01,32,6.20
2016,04,26,01,33,6.20
2016,04,26,01,34,6.20
2016,04,26,01,35,6.10
2016,04,26,01,36,6.10
2016,04,26,01,37,6.10
2016,04,26,01,38,6.10
2016,04,26,01,39,6.00
2016,04,26,01,40,6.00
2016,04,26,01,41,6.00
2016,04,26,01,42,6.00
2016,04,26,01,43,6.00
2016,04,26,01,44,5.90
2016,04,26,01,45,5.90
2016,04,26,01,46,5.90
2016,04,26,01,47,5.80
2016,04,26,01,48,5.80
2016,04,26,01,49,5.80
2016,04,26,01,50,5.70
2016,04,26,01,51,5.70
2016,04,26,01,52,5.70
2016,04,26,01,53,5.60
2016,04,26,01,54,5.60
2016,04,26,01,55,5.60
2016,04,26,01,56,5.60
2016,04,26,01,57,5.50
2016,04,26,01,58,5.50
2016,04,26,01,59,5.50
2016,04,26,02,00,5.40
2016,04,26,02,01,5.40
2016,04,26,02,02,5.40
2016,04,26,02,03,5.40
2016,04,26,02,04,5.30
2016,04,26,02,05,5.30
2016,04,26,02,06,5.30
2016,04,26,02,07,5.30
2016,04,26,02,08,5.30
2016,04,26,02,09,5.30
2016,04,26,02,10,5.30
2016,04,26,02,11,5.30
2016,04,26,02,12,5.30
2016,04,26,02,13,5.30
2016,04,26,02,14,5.30
2016,04,26,02,15,5.30
2016,04,26,02,16,5.30
2016,04,26,02,17,5.30
2016,04,26,02,18,5.30
2016,04,26,02,19,5.30
2016,04,26,02,20,5.30
2016,04,26,02,21,5.30
2016,04,26,02,22,5.30
2016,04,26,02,23,5.20
2016,04,26,02,24,5.20
2016,04,26,02,25,5.20
2016,04,26,02,26,5.20
2016,04,26,02,27,5.20
2016,04,26,02,28,5.20
2016,04,26,02,29,5.20
2016,04,26,02,30,5.20
2016,04,26,02,31,5.20
2016,04,26,02,32,5.20
2016,04,26,02,33,5.10
2016,04,26,02,34,5.10
2016,04,26,02,35,5.10
2016,04,26,02,36,5.10
2016,04,26,02,37,5.10
2016,04,26,02,38,5.10
2016,04,26,02,39,5.10
2016,04,26,02,40,5.10
2016,04,26,02,41,5.10
2016,04,26,02,42,5.10
2016,04,26,02,43,5.10
2016,04,26,02,44,5.10
2016,04,26,02,45,5.10
2016,04,26,02,46,5.10
2016,04,26,02,47,5.10
2016,04,26,02,48,5.10
2016,04,26,02,49,5.10
2016,04,26,02,50,5.10
2016,04,26,02,51,5.10
2016,04,26,02,52,5.10
2016,04,26,02,53,5.10
2016,04,26,02,54,5.10
2016,04,26,02,55,5.10
2016,04,26,02,56,5.10
2016,04,26,02,57,5.10
2016,04,26,02,58,5.10
2016,04,26,02,59,5.00
2016,04,26,03,00,5.00
2016,04,26,03,01,5.00
2016,04,26,03,02,5.00
2016,04,26,03,03,4.90
2016,04,26,03,04,4.90
2016,04,26,03,05,4.90
2016,04,26,03,06,4.90
2016,04,26,03,07,4.90
2016,04,26,03,08,4.80
2016,04,26,03,09,4.80
2016,04,26,03,10,4.80
2016,04,26,03,11,4.80
2016,04,26,03,12,4.80
2016,04,26,03,13,4.70
2016,04,26,03,14,4.70
2016,04,26,03,15,4.70
2016,04,26,03,16,4.70
2016,04,26,03,17,4.70
2016,04,26,03,18,4.60
2016,04,26,03,19,4.60
2016,04,26,03,20,4.60
2016,04,26,03,21,4.50
2016,04,26,03,22,4.50
2016,04,26,03,23,4.50
2016,04,26,03,24,4.40
2016,04,26,03,25,4.40
2016,04,26,03,26,4.30
2016,04,26,03,27,4.30
2016,04,26,03,28,4.30
2016,04,26,03,29,4.30
2016,04,26,03,30,4.30
2016,04,26,03,31,4.20
2016,04,26,03,32,4.20
2016,04,26,03,33,4.20
2016,04,26,03,34,4.20
2016,04,26,03,35,4.20
2016,04,26,03,36,4.20
2016,04,26,03,37,4.10
2016,04,26,03,38,4.10
2016,04,26,03,39,4.10
2016,04,26,03,40,4.10
2016,04,26,03,41,4.10
2016,04,26,03,42,4.00
2016,04,26,03,43,4.00
2016,04,26,03,44,4.00
2016,04,26,03,45,4.00
2016,04,26,03,46,3.90
2016,04,26,03,47,3.90
2016,04,26,03,48,3.90
2016,04,26,03,49,3.90
2016,04,26,03,50,3.90
2016,04,26,03,51,3.90
2016,04,26,03,52,3.90
2016,04,26,03,53,3.90
2016,04,26,03,54,3.90
2016,04,26,03,55,3.90
2016,04,26,03,56,3.90
2016,04,26,03,57,3.90
2016,04,26,03,58,3.90
2016,04,26,03,59,3.90
2016,04,26,04,00,3.90
2016,04,26,04,01,3.90
2016,04,26,04,02,3.90
2016,04,26,04,03,3.90
2016,04,26,04,04,3.90
2016,04,26,04,05,3.90
2016,04,26,04,06,3.90
2016,04,26,04,07,3.90
2016,04,26,04,08,3.90
2016,04,26,04,09,3.90
2016,04,26,04,10,3.90
2016,04,26,04,11,3.90
2016,04,26,04,12,3.90
2016,04,26,04,13,3.90
2016,04,26,04,14,3.90
2016,04,26,04,15,3.90
2016,04,26,04,16,3.90
2016,04,26,04,17,3.90
2016,04,26,04,18,3.90
2016,04,26,04,19,3.90
2016,04,26,04,20,3.90
2016,04,26,04,21,3.90
2016,04,26,04,22,3.90
2016,04,26,04,23,3.90
2016,04,26,04,24,3.90
2016,04,26,04,25,3.90
2016,04,26,04,26,4.00
2016,04,26,04,27,4.00
2016,04,26,04,28,4.00
2016,04,26,04,29,4.00
2016,04,26,04,30,4.00
2016,04,26,04,31,4.00
2016,04,26,04,32,4.00
2016,04,26,04,33,4.00
2016,04,26,04,34,4.00
2016,04,26,04,35,4.10
2016,04,26,04,36,4.10
2016,04,26,04,37,4.10
2016,04,26,04,38,4.10
2016,04,26,04,39,4.10
2016,04,26,04,40,4.10
2016,04,26,04,41,4.10
2016,04,26,04,42,4.10
2016,04,26,04,43,4.10
2016,04,26,04,44,4.10
2016,04,26,04,45,4.10
2016,04,26,04,46,4.10
2016,04,26,04,47,4.10
2016,04,26,04,48,4.10
2016,04,26,04,49,4.10
2016,04,26,04,50,4.10
2016,04,26,04,51,4.10
2016,04,26,04,52,4.10
2016,04,26,04,53,4.10
2016,04,26,04,54,4.10
2016,04,26,04,55,4.10
2016,04,26,04,56,4.10
2016,04,26,04,57,4.10
2016,04,26,04,58,4.10
2016,04,26,04,59,4.10
2016,04,26,05,00,4.00
2016,04,26,05,01,4.00
2016,04,26,05,02,4.00
2016,04,26,05,03,4.00
2016,04,26,05,04,4.00
2016,04,26,05,05,4.00
2016,04,26,05,06,4.00
2016,04,26,05,07,3.90
2016,04,26,05,08,3.90
2016,04,26,05,09,3.90
2016,04,26,05,10,3.90
2016,04,26,05,11,3.90
2016,04,26,05,12,3.80
2016,04,26,05,13,3.80
2016,04,26,05,14,3.80
2016,04,26,05,15,3.80
2016,04,26,05,16,3.80
2016,04,26,05,17,3.70
2016,04,26,05,18,3.70
2016,04,26,05,19,3.70
2016,04,26,05,20,3.70
2016,04,26,05,21,3.70
2016,04,26,05,22,3.70
2016,04,26,05,23,3.60
2016,04,26,05,24,3.60
2016,04,26,05,25,3.60
2016,04,26,05,26,3.60
2016,04,26,05,27,3.60
2016,04,26,05,28,3.60
2016,04,26,05,29,3.60
2016,04,26,05,30,3.50
2016,04,26,05,31,3.50
2016,04,26,05,32,3.50
2016,04,26,05,33,3.50
2016,04,26,05,34,3.50
2016,04,26,05,35,3.50
2016,04,26,05,36,3.50
2016,04,26,05,37,3.50
2016,04,26,05,38,3.50
2016,04,26,05,39,3.50
2016,04,26,05,40,3.40
2016,04,26,05,41,3.40
2016,04,26,05,42,3.50
2016,04,26,05,43,3.40
2016,04,26,05,44,3.40
2016,04,26,05,45,3.40
2016,04,26,05,46,3.40
2016,04,26,05,47,3.40
2016,04,26,05,48,3.40
2016,04,26,05,49,3.40
2016,04,26,05,50,3.40
2016,04,26,05,51,3.40
2016,04,26,05,52,3.40
2016,04,26,05,53,3.40
2016,04,26,05,54,3.30
2016,04,26,05,55,3.30
2016,04,26,05,56,3.30
2016,04,26,05,57,3.30
2016,04,26,05,58,3.30
2016,04,26,05,59,3.30
2016,04,26,06,00,3.30
2016,04,26,06,01,3.30
2016,04,26,06,02,3.30
2016,04,26,06,03,3.30
2016,04,26,06,04,3.30
2016,04,26,06,05,3.30
2016,04,26,06,06,3.30
2016,04,26,06,07,3.20
2016,04,26,06,08,3.20
2016,04,26,06,09,3.30
2016,04,26,06,10,3.20
2016,04,26,06,11,3.20
2016,04,26,06,12,3.20
2016,04,26,06,13,3.20
2016,04,26,06,14,3.20
2016,04,26,06,15,3.20
2016,04,26,06,16,3.20
2016,04,26,06,17,3.20
2016,04,26,06,18,3.20
2016,04,26,06,19,3.20
2016,04,26,06,20,3.20
2016,04,26,06,21,3.30
2016,04,26,06,22,3.20
2016,04,26,06,23,3.30
2016,04,26,06,24,3.30
2016,04,26,06,25,3.30
2016,04,26,06,26,3.30
2016,04,26,06,27,3.30
2016,04,26,06,28,3.30
2016,04,26,06,29,3.30
2016,04,26,06,30,3.30
2016,04,26,06,31,3.30
2016,04,26,06,32,3.30
2016,04,26,06,33,3.30
2016,04,26,06,34,3.30
2016,04,26,06,35,3.40
2016,04,26,06,36,3.40
2016,04,26,06,37,3.40
2016,04,26,06,38,3.40
2016,04,26,06,39,3.40
2016,04,26,06,40,3.40
2016,04,26,06,41,3.40
2016,04,26,06,42,3.50
2016,04,26,06,43,3.50
2016,04,26,06,44,3.50
2016,04,26,06,45,3.50
2016,04,26,06,46,3.60
2016,04,26,06,47,3.60
2016,04,26,06,48,3.60
2016,04,26,06,49,3.60
2016,04,26,06,50,3.60
2016,04,26,06,51,3.60
2016,04,26,06,52,3.60
2016,04,26,06,53,3.60
2016,04,26,06,54,3.60
2016,04,26,06,55,3.60
2016,04,26,06,56,3.60
2016,04,26,06,57,3.60
2016,04,26,06,58,3.60
2016,04,26,06,59,3.70
2016,04,26,07,00,3.70
2016,04,26,07,01,3.70
2016,04,26,07,02,3.70
2016,04,26,07,03,3.70
2016,04,26,07,04,3.70
2016,04,26,07,05,3.70
2016,04,26,07,06,3.70
2016,04,26,07,07,3.70
2016,04,26,07,08,3.80
2016,04,26,07,09,3.80
2016,04,26,07,10,3.80
2016,04,26,07,11,3.80
2016,04,26,07,12,3.80
2016,04,26,07,13,3.80
2016,04,26,07,14,3.80
2016,04,26,07,15,3.80
2016,04,26,07,16,3.80
2016,04,26,07,17,3.80
2016,04,26,07,18,3.80
2016,04,26,07,19,3.80
2016,04,26,07,20,3.80
2016,04,26,07,21,3.80
2016,04,26,07,22,3.80
2016,04,26,07,23,3.80
2016,04,26,07,24,3.90
2016,04,26,07,25,3.90
2016,04,26,07,26,3.90
2016,04,26,07,27,3.90
2016,04,26,07,28,3.90
2016,04,26,07,29,4.00
2016,04,26,07,30,4.00
2016,04,26,07,31,4.00
2016,04,26,07,32,4.10
2016,04,26,07,33,4.10
2016,04,26,07,34,4.20
2016,04,26,07,35,4.20
2016,04,26,07,36,4.20
2016,04,26,07,37,4.20
2016,04,26,07,38,4.30
2016,04,26,07,39,4.30
2016,04,26,07,40,4.30
2016,04,26,07,41,4.40
2016,04,26,07,42,4.40
2016,04,26,07,43,4.40
2016,04,26,07,44,4.50
2016,04,26,07,45,4.50
2016,04,26,07,46,4.50
2016,04,26,07,47,4.60
2016,04,26,07,48,4.60
2016,04,26,07,49,4.60
2016,04,26,07,50,4.60
2016,04,26,07,51,4.70
2016,04,26,07,52,4.70
2016,04,26,07,53,4.70
2016,04,26,07,54,4.80
2016,04,26,07,55,4.80
2016,04,26,07,56,4.80
2016,04,26,07,57,4.80
2016,04,26,07,58,4.90
2016,04,26,07,59,4.90
2016,04,26,08,00,4.90
2016,04,26,08,01,5.00
2016,04,26,08,02,5.00
2016,04,26,08,03,5.10
2016,04,26,08,04,5.10
2016,04,26,08,05,5.10
2016,04,26,08,06,5.20
2016,04,26,08,07,5.20
2016,04,26,08,08,5.20
2016,04,26,08,09,5.20
2016,04,26,08,10,5.30
2016,04,26,08,11,5.30
2016,04,26,08,12,5.40
2016,04,26,08,13,5.40
2016,04,26,08,14,5.50
2016,04,26,08,15,5.50
2016,04,26,08,16,5.60
2016,04,26,08,17,5.60
2016,04,26,08,18,5.60
2016,04,26,08,19,5.70
2016,04,26,08,20,5.70
2016,04,26,08,21,5.70
2016,04,26,08,22,5.70
2016,04,26,08,23,5.70
2016,04,26,08,24,5.80
2016,04,26,08,25,5.80
2016,04,26,08,26,5.80
2016,04,26,08,27,5.80
2016,04,26,08,28,5.90
2016,04,26,08,29,5.90
2016,04,26,08,30,5.90
2016,04,26,08,31,5.90
2016,04,26,08,32,5.90
2016,04,26,08,33,5.90
2016,04,26,08,34,5.90
2016,04,26,08,35,5.90
2016,04,26,08,36,6.00
2016,04,26,08,37,6.00
2016,04,26,08,38,6.00
2016,04,26,08,39,6.10
2016,04,26,08,40,6.10
2016,04,26,08,41,6.10
2016,04,26,08,42,6.10
2016,04,26,08,43,6.10
2016,04,26,08,44,6.10
2016,04,26,08,45,6.10
2016,04,26,08,46,6.10
2016,04,26,08,47,6.20
2016,04,26,08,48,6.20
2016,04,26,08,49,6.20
2016,04,26,08,50,6.30
2016,04,26,08,51,6.30
2016,04,26,08,52,6.30
2016,04,26,08,53,6.30
2016,04,26,08,54,6.40
2016,04,26,08,55,6.40
2016,04,26,08,56,6.50
2016,04,26,08,57,6.50
2016,04,26,08,58,6.60
2016,04,26,08,59,6.60
2016,04,26,09,00,6.70
2016,04,26,09,01,6.80
2016,04,26,09,02,6.80
2016,04,26,09,03,6.90
2016,04,26,09,04,7.00
2016,04,26,09,05,7.00
2016,04,26,09,06,7.00
2016,04,26,09,07,7.00
2016,04,26,09,08,7.00
2016,04,26,09,09,7.10
2016,04,26,09,10,7.10
2016,04,26,09,11,7.20
2016,04,26,09,12,7.20
2016,04,26,09,13,7.30
2016,04,26,09,14,7.40
2016,04,26,09,15,7.40
2016,04,26,09,16,7.50
2016,04,26,09,17,7.50
2016,04,26,09,18,7.50
2016,04,26,09,19,7.60
2016,04,26,09,20,7.60
2016,04,26,09,21,7.60
2016,04,26,09,22,7.70
2016,04,26,09,23,7.80
2016,04,26,09,24,7.90
2016,04,26,09,25,8.00
2016,04,26,09,26,8.00
2016,04,26,09,27,8.10
2016,04,26,09,28,8.20
2016,04,26,09,29,8.20
2016,04,26,09,30,8.30
2016,04,26,09,31,8.30
2016,04,26,09,32,8.40
2016,04,26,09,33,8.50
2016,04,26,09,34,8.50
2016,04,26,09,35,8.60
2016,04,26,09,36,8.70
2016,04,26,09,37,8.80
2016,04,26,09,38,8.80
2016,04,26,09,39,8.90
2016,04,26,09,40,8.90
2016,04,26,09,41,8.80
2016,04,26,09,42,8.80
2016,04,26,09,43,8.80
2016,04,26,09,44,8.80
2016,04,26,09,45,8.80
2016,04,26,09,46,8.80
2016,04,26,09,47,8.80
2016,04,26,09,48,8.80
2016,04,26,09,49,8.80
2016,04,26,09,50,8.90
2016,04,26,09,51,8.90
2016,04,26,09,52,8.90
2016,04,26,09,53,9.00
2016,04,26,09,54,9.00
2016,04,26,09,55,9.10
2016,04,26,09,56,9.20
2016,04,26,09,57,9.30
2016,04,26,09,58,9.40
2016,04,26,09,59,9.50
2016,04,26,10,00,9.60
2016,04,26,10,01,9.70
2016,04,26,10,02,9.80
2016,04,26,10,03,9.90
2016,04,26,10,04,10.00
2016,04,26,10,05,10.00
2016,04,26,10,06,10.00
2016,04,26,10,07,10.00
2016,04,26,10,08,10.00
2016,04,26,10,09,10.00
2016,04,26,10,10,10.00
2016,04,26,10,11,10.00
2016,04,26,10,12,10.00
2016,04,26,10,13,10.00
2016,04,26,10,14,10.00
2016,04,26,10,15,10.00
2016,04,26,10,16,10.00
2016,04,26,10,17,10.00
2016,04,26,10,18,10.00
2016,04,26,10,19,10.10
2016,04,26,10,20,10.10
2016,04,26,10,21,10.20
2016,04,26,10,22,10.30
2016,04,26,10,23,10.30
2016,04,26,10,24,10.40
2016,04,26,10,25,10.50
2016,04,26,10,26,10.60
2016,04,26,10,27,10.60
2016,04,26,10,28,10.70
2016,04,26,10,29,10.70
2016,04,26,10,30,10.70
2016,04,26,10,31,10.70
2016,04,26,10,32,10.80
2016,04,26,10,33,10.80
2016,04,26,10,34,10.80
2016,04,26,10,35,10.80
2016,04,26,10,36,10.90
2016,04,26,10,37,10.90
2016,04,26,10,38,11.00
2016,04,26,10,39,11.00
2016,04,26,10,40,11.10
2016,04,26,10,41,11.20
2016,04,26,10,42,11.20
2016,04,26,10,43,11.20
2016,04,26,10,44,11.20
2016,04,26,10,45,11.20
2016,04,26,10,46,11.20
2016,04,26,10,47,11.20
2016,04,26,10,48,11.20
2016,04,26,10,49,11.10
2016,04,26,10,50,11.10
2016,04,26,10,51,11.10
2016,04,26,10,52,11.20
2016,04,26,10,53,11.20
2016,04,26,10,54,11.30
2016,04,26,10,55,11.30
2016,04,26,10,56,11.40
2016,04,26,10,57,11.50
2016,04,26,10,58,11.60
2016,04,26,10,59,11.60
2016,04,26,11,00,11.60
2016,04,26,11,01,11.60
2016,04,26,11,02,11.50
2016,04,26,11,03,11.40
2016,04,26,11,04,11.40
2016,04,26,11,05,11.40
2016,04,26,11,06,11.30
2016,04,26,11,07,11.30
2016,04,26,11,08,11.30
2016,04,26,11,09,11.30
2016,04,26,11,10,11.30
2016,04,26,11,11,11.30
2016,04,26,11,12,11.40
2016,04,26,11,13,11.40
2016,04,26,11,14,11.40
2016,04,26,11,15,11.40
2016,04,26,11,16,11.30
2016,04,26,11,17,11.30
2016,04,26,11,18,11.30
2016,04,26,11,19,11.30
2016,04,26,11,20,11.30
2016,04,26,11,21,11.30
2016,04,26,11,22,11.40
2016,04,26,11,23,11.40
2016,04,26,11,24,11.40
2016,04,26,11,25,11.40
2016,04,26,11,26,11.50
2016,04,26,11,27,11.50
2016,04,26,11,28,11.40
2016,04,26,11,29,11.40
2016,04,26,11,30,11.40
2016,04,26,11,31,11.50
2016,04,26,11,32,11.50
2016,04,26,11,33,11.60
2016,04,26,11,34,11.60
2016,04,26,11,35,11.70
2016,04,26,11,36,11.70
2016,04,26,11,37,11.70
2016,04,26,11,38,11.70
2016,04,26,11,39,11.70
2016,04,26,11,40,11.80
2016,04,26,11,41,11.80
2016,04,26,11,42,11.80
2016,04,26,11,43,11.90
2016,04,26,11,44,11.90
2016,04,26,11,45,11.90
2016,04,26,11,46,11.90
2016,04,26,11,47,11.90
2016,04,26,11,48,11.90
2016,04,26,11,49,11.90
2016,04,26,11,50,11.90
2016,04,26,11,51,12.00
2016,04,26,11,52,12.00
2016,04,26,11,53,12.10
2016,04,26,11,54,12.20
2016,04,26,11,55,12.20
2016,04,26,11,56,12.20
2016,04,26,11,57,12.30
2016,04,26,11,58,12.30
2016,04,26,11,59,12.40
2016,04,26,12,00,12.40
2016,04,26,12,01,12.50
2016,04,26,12,02,12.60
2016,04,26,12,03,12.70
2016,04,26,12,04,12.70
2016,04,26,12,05,12.80
2016,04,26,12,06,12.80
2016,04,26,12,07,12.80
2016,04,26,12,08,12.80
2016,04,26,12,09,12.80
2016,04,26,12,10,12.80
2016,04,26,12,11,12.90
2016,04,26,12,12,12.90
2016,04,26,12,13,13.00
2016,04,26,12,14,13.00
2016,04,26,12,15,13.10
2016,04,26,12,16,13.10
2016,04,26,12,17,13.00
2016,04,26,12,18,12.90
2016,04,26,12,19,12.80
2016,04,26,12,20,12.80
2016,04,26,12,21,12.80
2016,04,26,12,22,12.80
2016,04,26,12,23,12.80
2016,04,26,12,24,12.80
2016,04,26,12,25,12.80
2016,04,26,12,26,12.80
2016,04,26,12,27,12.80
2016,04,26,12,28,12.80
2016,04,26,12,29,12.80
2016,04,26,12,30,12.80
2016,04,26,12,31,12.80
2016,04,26,12,32,12.80
2016,04,26,12,33,12.80
2016,04,26,12,34,12.80
2016,04,26,12,35,12.90
2016,04,26,12,36,12.90
2016,04,26,12,37,12.90
2016,04,26,12,38,12.90
2016,04,26,12,39,12.90
2016,04,26,12,40,12.90
2016,04,26,12,41,12.90
2016,04,26,12,42,13.00
2016,04,26,12,43,13.10
2016,04,26,12,44,13.10
2016,04,26,12,45,13.10
2016,04,26,12,46,13.10
2016,04,26,12,47,13.10
2016,04,26,12,48,13.10
2016,04,26,12,49,13.10
2016,04,26,12,50,13.00
2016,04,26,12,51,13.00
2016,04,26,12,52,12.90
2016,04,26,12,53,12.90
2016,04,26,12,54,12.90
2016,04,26,12,55,12.90
2016,04,26,12,56,13.00
2016,04,26,12,57,13.10
2016,04,26,12,58,13.10
2016,04,26,12,59,13.10
2016,04,26,13,00,13.10
2016,04,26,13,01,13.10
2016,04,26,13,02,13.20
2016,04,26,13,03,13.10
2016,04,26,13,04,13.10
2016,04,26,13,05,13.10
2016,04,26,13,06,13.10
2016,04,26,13,07,13.10
2016,04,26,13,08,13.10
2016,04,26,13,09,13.10
2016,04,26,13,10,13.10
2016,04,26,13,11,13.10
2016,04,26,13,12,13.20
2016,04,26,13,13,13.20
2016,04,26,13,14,13.20
2016,04,26,13,15,13.20
2016,04,26,13,16,13.30
2016,04,26,13,17,13.20
2016,04,26,13,18,13.20
2016,04,26,13,19,13.20
2016,04,26,13,20,13.10
2016,04,26,13,21,13.10
2016,04,26,13,22,13.10
2016,04,26,13,23,13.10
2016,04,26,13,24,13.10
2016,04,26,13,25,13.20
2016,04,26,13,26,13.20
2016,04,26,13,27,13.20
2016,04,26,13,28,13.20
2016,04,26,13,29,13.20
2016,04,26,13,30,13.20
2016,04,26,13,31,13.20
2016,04,26,13,32,13.20
2016,04,26,13,33,13.20
2016,04,26,13,34,13.20
2016,04,26,13,35,13.10
2016,04,26,13,36,13.10
2016,04,26,13,37,13.10
2016,04,26,13,38,13.10
2016,04,26,13,39,13.10
2016,04,26,13,40,13.10
2016,04,26,13,41,13.10
2016,04,26,13,42,13.10
2016,04,26,13,43,13.10
2016,04,26,13,44,13.10
2016,04,26,13,45,13.10
2016,04,26,13,46,13.10
2016,04,26,13,47,13.00
2016,04,26,13,48,13.00
2016,04,26,13,49,13.00
2016,04,26,13,50,12.90
2016,04,26,13,51,12.90
2016,04,26,13,52,12.90
2016,04,26,13,53,12.90
2016,04,26,13,54,12.90
2016,04,26,13,55,12.90
2016,04,26,13,56,12.90
2016,04,26,13,57,12.90
2016,04,26,13,58,12.90
2016,04,26,13,59,12.90
2016,04,26,14,00,12.90
2016,04,26,14,01,12.90
2016,04,26,14,02,13.00
2016,04,26,14,03,13.00
2016,04,26,14,04,12.90
2016,04,26,14,05,12.90
2016,04,26,14,06,12.80
2016,04,26,14,07,12.80
2016,04,26,14,08,12.80
2016,04,26,14,09,12.80
2016,04,26,14,10,12.80
2016,04,26,14,11,12.80
2016,04,26,14,12,12.80
2016,04,26,14,13,12.90
2016,04,26,14,14,12.90
2016,04,26,14,15,12.90
2016,04,26,14,16,12.80
2016,04,26,14,17,12.80
2016,04,26,14,18,12.80
2016,04,26,14,19,12.80
2016,04,26,14,20,12.90
2016,04,26,14,21,12.90
2016,04,26,14,22,13.00
2016,04,26,14,23,13.00
2016,04,26,14,24,13.00
2016,04,26,14,25,13.10
2016,04,26,14,26,13.10
2016,04,26,14,27,13.20
2016,04,26,14,28,13.20
2016,04,26,14,29,13.20
2016,04,26,14,30,13.20
2016,04,26,14,31,13.10
2016,04,26,14,32,13.10
2016,04,26,14,33,13.10
2016,04,26,14,34,13.00
2016,04,26,14,35,13.00
2016,04,26,14,36,12.90
2016,04,26,14,37,12.90
2016,04,26,14,38,12.90
2016,04,26,14,39,12.90
2016,04,26,14,40,12.90
2016,04,26,14,41,12.90
2016,04,26,14,42,12.90
2016,04,26,14,43,12.90
2016,04,26,14,44,12.90
2016,04,26,14,45,12.90
2016,04,26,14,46,12.90
2016,04,26,14,47,12.90
2016,04,26,14,48,12.90
2016,04,26,14,49,12.90
2016,04,26,14,50,12.90
2016,04,26,14,51,13.00
2016,04,26,14,52,13.00
2016,04,26,14,53,13.00
2016,04,26,14,54,13.10
2016,04,26,14,55,13.10
2016,04,26,14,56,13.10
2016,04,26,14,57,13.10
2016,04,26,14,58,13.20
2016,04,26,14,59,13.20
2016,04,26,15,00,13.20
2016,04,26,15,01,13.20
2016,04,26,15,02,13.20
2016,04,26,15,03,13.20
2016,04,26,15,04,13.20
2016,04,26,15,05,13.20
2016,04,26,15,06,13.20
2016,04,26,15,07,13.20
2016,04,26,15,08,13.20
2016,04,26,15,09,13.20
2016,04,26,15,10,13.20
2016,04,26,15,11,13.10
2016,04,26,15,12,13.10
2016,04,26,15,13,13.10
2016,04,26,15,14,13.10
2016,04,26,15,15,13.10
2016,04,26,15,16,13.10
2016,04,26,15,17,13.10
2016,04,26,15,18,13.20
2016,04,26,15,19,13.20
2016,04,26,15,20,13.20
2016,04,26,15,21,13.20
2016,04,26,15,22,13.30
2016,04,26,15,23,13.30
2016,04,26,15,24,13.30
2016,04,26,15,25,13.30
2016,04,26,15,26,13.30
2016,04,26,15,27,13.30
2016,04,26,15,28,13.30
2016,04,26,15,29,13.30
2016,04,26,15,30,13.30
2016,04,26,15,31,13.30
2016,04,26,15,32,13.40
2016,04,26,15,33,13.40
2016,04,26,15,34,13.40
2016,04,26,15,35,13.40
2016,04,26,15,36,13.40
2016,04,26,15,37,13.40
2016,04,26,15,38,13.30
2016,04,26,15,39,13.30
2016,04,26,15,40,13.30
2016,04,26,15,41,13.30
2016,04,26,15,42,13.30
2016,04,26,15,43,13.30
2016,04,26,15,44,13.30
2016,04,26,15,45,13.30
2016,04,26,15,46,13.30
2016,04,26,15,47,13.30
2016,04,26,15,48,13.30
2016,04,26,15,49,13.30
2016,04,26,15,50,13.30
2016,04,26,15,51,13.30
2016,04,26,15,52,13.20
2016,04,26,15,53,13.20
2016,04,26,15,54,13.20
2016,04,26,15,55,13.20
2016,04,26,15,56,13.20
2016,04,26,15,57,13.20
2016,04,26,15,58,13.10
2016,04,26,15,59,13.10
2016,04,26,16,00,13.10
2016,04,26,16,01,13.10
2016,04,26,16,02,13.10
2016,04,26,16,03,13.20
2016,04,26,16,04,13.10
2016,04,26,16,05,13.10
2016,04,26,16,06,13.10
2016,04,26,16,07,13.10
2016,04,26,16,08,13.10
2016,04,26,16,09,13.00
2016,04,26,16,10,12.90
2016,04,26,16,11,12.90
2016,04,26,16,12,12.90
2016,04,26,16,13,12.90
2016,04,26,16,14,12.90
2016,04,26,16,15,12.90
2016,04,26,16,16,12.90
2016,04,26,16,17,12.90
2016,04,26,16,18,12.90
2016,04,26,16,19,12.90
2016,04,26,16,20,12.90
2016,04,26,16,21,12.90
2016,04,26,16,22,12.80
2016,04,26,16,23,12.80
2016,04,26,16,24,12.80
2016,04,26,16,25,12.80
2016,04,26,16,26,12.80
2016,04,26,16,27,12.80
2016,04,26,16,28,12.80
2016,04,26,16,29,12.80
2016,04,26,16,30,12.80
2016,04,26,16,31,12.80
2016,04,26,16,32,12.90
2016,04,26,16,33,12.90
2016,04,26,16,34,12.90
2016,04,26,16,35,12.90
2016,04,26,16,36,12.80
2016,04,26,16,37,12.80
2016,04,26,16,38,12.80
2016,04,26,16,39,12.80
2016,04,26,16,40,12.70
2016,04,26,16,41,12.70
2016,04,26,16,42,12.60
2016,04,26,16,43,12.60
2016,04,26,16,44,12.60
2016,04,26,16,45,12.60
2016,04,26,16,46,12.50
2016,04,26,16,47,12.50
2016,04,26,16,48,12.50
2016,04,26,16,49,12.50
2016,04,26,16,50,12.40
2016,04,26,16,51,12.40
2016,04,26,16,52,12.40
2016,04,26,16,53,12.40
2016,04,26,16,54,12.40
2016,04,26,16,55,12.50
2016,04,26,16,56,12.50
2016,04,26,16,57,12.50
2016,04,26,16,58,12.40
2016,04,26,16,59,12.40
2016,04,26,17,00,12.40
2016,04,26,17,01,12.40
2016,04,26,17,02,12.40
2016,04,26,17,03,12.40
2016,04,26,17,04,12.30
2016,04,26,17,05,12.30
2016,04,26,17,06,12.30
2016,04,26,17,07,12.30
2016,04,26,17,08,12.30
2016,04,26,17,09,12.30
2016,04,26,17,10,12.30
2016,04,26,17,11,12.30
2016,04,26,17,12,12.30
2016,04,26,17,13,12.30
2016,04,26,17,14,12.30
2016,04,26,17,15,12.40
2016,04,26,17,16,12.40
2016,04,26,17,17,12.40
2016,04,26,17,18,12.40
2016,04,26,17,19,12.40
2016,04,26,17,20,12.40
2016,04,26,17,21,12.40
2016,04,26,17,22,12.40
2016,04,26,17,23,12.40
2016,04,26,17,24,12.40
2016,04,26,17,25,12.40
2016,04,26,17,26,12.40
2016,04,26,17,27,12.40
2016,04,26,17,28,12.40
2016,04,26,17,29,12.40
2016,04,26,17,30,12.50
2016,04,26,17,31,12.50
2016,04,26,17,32,12.50
2016,04,26,17,33,12.50
2016,04,26,17,34,12.50
2016,04,26,17,35,12.50
2016,04,26,17,36,12.60
2016,04,26,17,37,12.60
2016,04,26,17,38,12.60
2016,04,26,17,39,12.60
2016,04,26,17,40,12.60
2016,04,26,17,41,12.60
2016,04,26,17,42,12.60
2016,04,26,17,43,12.60
2016,04,26,17,44,12.60
2016,04,26,17,45,12.60